EW6114 Weather Reports


Display with metric or nautical units.
time (UTC)temp
F
wind
direction
speed
MPH
gust
MPH
rain 1hr
in
rain 24hr
in
rain mn
in
humidity
%
barometer
mb
20260505014606 0 238 0.0 0.0 0.00 0.00 0.00 1070.4
20260505014103 0 215 0.0 0.0 0.00 0.00 0.00 1070.4
20260505013558 0 237 0.0 0.0 0.00 0.00 0.00 1070.4
20260505013057 0 229 0.0 0.0 0.00 0.00 0.00 1070.4
20260505012558 0 258 0.0 0.0 0.00 0.00 0.00 1070.3
20260505012058 0 245 0.0 0.0 0.00 0.00 0.00 1070.3
20260505011556 0 227 0.0 0.0 0.00 0.00 0.00 1070.2
20260505011054 0 214 0.0 0.0 0.00 0.00 0.00 1070.3
20260505010552 0 221 0.0 0.0 0.00 0.00 0.00 1070.2
20260505010052 0 244 0.0 0.0 0.00 0.00 0.00 1070.2
20260505005552 0 229 0.0 0.0 0.00 0.00 0.00 1070.1
20260505005050 0 244 0.0 0.0 0.00 0.00 0.00 1070.1
20260505004538 0 216 0.0 0.0 0.00 0.00 0.00 1070.1
20260505004036 0 185 0.0 0.0 0.00 0.00 0.00 1070.0
20260505003507 0 269 0.0 0.0 0.00 0.00 0.00 1069.9
20260505003007 0 219 0.0 0.0 0.00 0.00 0.00 1069.8
20260505002458 0 255 0.0 0.0 0.00 0.00 0.00 1069.8
20260505001956 0 208 0.0 0.0 0.00 0.00 0.00 1069.7
20260505001452 0 233 0.0 0.0 0.00 0.00 0.00 1069.7
20260505000952 0 245 0.0 0.0 0.00 0.00 0.00 1069.7
20260505000451 0 237 0.0 0.0 0.00 0.00 0.00 1069.5
20260504235949 0 201 0.0 0.0 0.00 0.00 0.00 1069.5
20260504235449 0 247 0.0 0.0 0.00 0.00 0.00 1069.5
20260504234939 0 175 0.0 0.0 0.00 0.00 0.00 1069.5
20260504234407 0 206 0.0 0.0 0.00 0.00 0.00 1069.5
20260504233855 0 222 0.0 0.0 0.00 0.00 0.00 1069.5
20260504233348 0 214 0.0 0.0 0.00 0.00 0.00 1069.5
20260504232836 0 215 0.0 0.0 0.00 0.00 0.00 1069.5
20260504232331 0 214 0.0 0.0 0.00 0.00 0.00 1069.7
20260504231753 0 213 0.0 0.0 0.00 0.00 0.00 1069.7
20260504231236 0 214 0.0 0.0 0.00 0.00 0.00 1069.7
20260504230653 0 214 0.0 0.0 0.00 0.00 0.00 1069.7
20260504230154 0 214 0.0 0.0 0.00 0.00 0.00 1069.5
20260504225651 0 219 0.0 0.0 0.00 0.00 0.00 1069.4
20260504225421 0 210 0.0 0.0 0.00 0.00 0.00 1069.4
20260504224639 0 210 0.0 0.0 0.00 0.00 0.00 1069.3
20260504224129 0 216 0.0 0.0 0.00 0.00 0.00 1069.3
20260504223552 0 211 0.0 0.0 0.00 0.00 0.00 1069.3
20260504223052 0 179 0.0 0.0 0.00 0.00 0.00 1069.2
20260504222821 0 0.0 0.0 0.00 0.00 0.00 1069.1
20260504222050 0 0.0 0.0 0.00 0.00 0.00 1069.2
20260504221544 0 0.0 0.0 0.00 0.00 0.00 1069.0
20260504220952 0 0.0 0.0 0.00 0.00 0.00 1069.0
20260504220452 0 0.0 0.0 0.00 0.00 0.00 1069.0
20260504215949 0 0.0 0.0 0.00 0.00 0.00 1068.9
20260504215354 0 0.0 0.0 0.00 0.00 0.00 1068.8
20260504214847 0 0.0 0.0 0.00 0.00 0.00 1068.8
20260504214253 0 0.0 0.0 0.00 0.00 0.00 1068.7
20260504213751 0 0.0 0.0 0.00 0.00 0.00 1068.6
20260504213251 0 0.0 0.0 0.00 0.00 0.00 1068.6
20260504212748 0 0.0 0.0 0.00 0.00 0.00 1068.6
20260504212249 0 216 0.0 0.0 0.00 0.00 0.00 1068.5
20260504211702 0 216 0.0 0.0 0.00 0.00 0.00 1068.4
20260504211136 0 216 0.0 0.0 0.00 0.00 0.00 1068.4
20260504210635 0 216 0.0 0.0 0.00 0.00 0.00 1068.3
20260504210049 0 216 0.0 0.0 0.00 0.00 0.00 1068.3
20260504205748 0 216 0.0 0.0 0.00 0.00 0.00 1068.2
20260504204949 0 216 0.0 0.0 0.00 0.00 0.00 1068.2
20260504204715 0 216 0.0 0.0 0.00 0.00 0.00 1068.1
20260504203912 0 216 0.0 0.0 0.00 0.00 0.00 1068.0
20260504203628 0 216 0.0 0.0 0.00 0.00 0.00 1068.0
20260504202851 0 216 0.0 0.0 0.00 0.00 0.00 1067.9
20260504202254 0 216 0.0 0.0 0.00 0.00 0.00 1067.8
20260504201727 0 216 0.0 0.0 0.00 0.00 0.00 1067.9
20260504201153 0 216 0.0 0.0 0.00 0.00 0.00 1067.8
20260504200654 0 216 0.0 0.0 0.00 0.00 0.00 1067.7
20260504200144 0 216 0.0 0.0 0.00 0.00 0.00 1067.7
20260504195630 0 216 0.0 0.0 0.00 0.00 0.00 1067.7
20260504195052 0 216 0.0 0.0 0.00 0.00 0.00 1067.6
20260504194553 0 216 0.0 0.0 0.00 0.00 0.00 1067.5
20260504194049 0 216 0.0 0.0 0.00 0.00 0.00 1067.5
20260504193545 0 216 0.0 0.0 0.00 0.00 0.00 1067.4
20260504193003 0 216 0.0 0.0 0.00 0.00 0.00 1067.4
20260504192657 0 216 0.0 0.0 0.00 0.00 0.00 1067.4
20260504191324 0 208 0.0 0.0 0.00 0.00 0.00 1067.3
20260504190804 0 225 0.0 0.0 0.00 0.00 0.00 1067.3
20260504190252 0 216 0.0 0.0 0.00 0.00 0.00 1067.3
20260504185731 0 216 0.0 0.0 0.00 0.00 0.00 1067.2
20260504185223 0 216 0.0 0.0 0.00 0.00 0.00 1067.2
20260504184657 0 216 0.0 0.0 0.00 0.00 0.00 1067.2
20260504184148 0 216 0.0 0.0 0.00 0.00 0.00 1067.2
20260504183922 0 216 0.0 0.0 0.00 0.00 0.00 1067.1
20260504183136 0 216 0.0 0.0 0.00 0.00 0.00 1067.1
20260504182550 0 216 0.0 0.0 0.00 0.00 0.00 1067.0
20260504182017 0 216 0.0 0.0 0.00 0.00 0.00 1067.0
20260504181456 0 216 0.0 0.0 0.00 0.00 0.00 1067.0
20260504180946 0 216 0.0 0.0 0.00 0.00 0.00 1066.8
20260504180651 0 216 0.0 0.0 0.00 0.00 0.00 1067.0
20260504175856 0 216 0.0 0.0 0.00 0.00 0.00 1067.0
20260504175622 0 216 0.0 0.0 0.00 0.00 0.00 1067.0
20260504174849 0 216 0.0 0.0 0.00 0.00 0.00 1067.1
20260504174331 0 216 0.0 0.0 0.00 0.00 0.00 1067.1
20260504174019 0 216 0.0 0.0 0.00 0.00 0.00 1067.0
20260504173247 0 216 0.0 0.0 0.00 0.00 0.00 1067.0
20260504172747 0 216 0.0 0.0 0.00 0.00 0.00 1067.0
20260504172509 0 216 0.0 0.0 0.00 0.00 0.00 1067.1
20260504171651 0 216 0.0 0.0 0.00 0.00 0.00 1067.1
20260504171152 0 216 0.0 0.0 0.00 0.00 0.00 1067.2
20260504170636 0 216 0.0 0.0 0.00 0.00 0.00 1067.2
20260504160250 0 224 0.0 0.0 0.00 0.00 0.00 1067.1
20260504150949 0 224 0.0 0.0 0.00 0.00 0.00 1067.0
20260504150412 0 224 0.0 0.0 0.00 0.00 0.00 1067.0
20260504141259 0 224 0.0 0.0 0.00 0.00 0.00 1066.6
20260504140747 0 224 0.0 0.0 0.00 0.00 0.00 1066.6
20260504140244 0 224 0.0 0.0 0.00 0.00 0.00 1066.6
20260504130449 0 224 0.0 0.0 0.00 0.00 0.00 1066.5
20260504120152 0 223 0.0 0.0 0.00 0.00 0.00 1066.2
20260504110355 0 223 0.0 0.0 0.00 0.00 0.00 1065.6
20260504100555 0 225 0.0 0.0 0.00 0.00 0.00 1064.7
20260504081826 0 226 0.0 0.0 0.00 0.00 0.00 1063.1
20260504081554 0 248 0.0 0.0 0.00 0.00 0.00 1063.0
20260504080823 0 196 0.0 0.0 0.00 0.00 0.00 1062.9
20260504080322 0 248 0.0 0.0 0.00 0.00 0.00 1062.9
20260504070222 0 222 0.0 0.0 0.00 0.00 0.00 1062.3
20260504060210 0 225 0.0 0.0 0.00 0.00 0.00 1061.8
20260504050650 0 229 0.0 0.0 0.00 0.00 0.00 1061.1
20260504050150 0 254 0.0 0.0 0.00 0.00 0.00 1061.0
20260504045650 0 225 0.0 0.0 0.00 0.00 0.00 1060.9
20260504045150 0 262 0.0 0.0 0.00 0.00 0.00 1061.0
20260504044921 0 233 0.0 0.0 0.00 0.00 0.00 1060.9
20260504044150 0 205 0.0 0.0 0.00 0.00 0.00 1060.9
20260504043650 0 227 0.0 0.0 0.00 0.00 0.00 1060.8
20260504043150 0 241 0.0 0.0 0.00 0.00 0.00 1060.8
20260504042650 0 206 0.0 0.0 0.00 0.00 0.00 1060.8
20260504042152 0 206 0.0 0.0 0.00 0.00 0.00 1060.7
20260504041644 0 347 0.0 0.0 0.00 0.00 0.00 1060.7
20260504041142 0 183 0.0 0.0 0.00 0.00 0.00 1060.8
20260504040641 0 214 0.0 0.0 0.00 0.00 0.00 1060.8
20260504040138 0 226 0.0 0.0 0.00 0.00 0.00 1060.8
20260504035637 0 230 0.0 0.0 0.00 0.00 0.00 1060.7
20260504035408 0 206 0.0 0.0 0.00 0.00 0.00 1060.7
20260504034638 0 218 0.0 0.0 0.00 0.00 0.00 1060.7
20260504034406 0 214 0.0 0.0 0.00 0.00 0.00 1060.6
20260504033636 0 256 0.0 0.0 0.00 0.00 0.00 1060.6
20260504033134 0 187 0.0 0.0 0.00 0.00 0.00 1060.6
20260504032634 0 221 0.0 0.0 0.00 0.00 0.00 1060.6
20260504032131 0 191 0.0 0.0 0.00 0.00 0.00 1060.6
20260504031631 0 182 0.0 0.0 0.00 0.00 0.00 1060.7
20260504031130 0 241 0.0 0.0 0.00 0.00 0.00 1060.7
20260504030130 0 219 0.0 0.0 0.00 0.00 0.00 1060.7
20260504025630 0 226 0.0 0.0 0.00 0.00 0.00 1060.8
20260504025128 0 250 0.0 0.0 0.00 0.00 0.00 1060.8
20260504024617 0 246 0.0 0.0 0.00 0.00 0.00 1060.9
20260504024118 0 194 0.0 0.0 0.00 0.00 0.00 1060.9
20260504023559 0 202 0.0 0.0 0.00 0.00 0.00 1060.8
20260504023059 0 237 0.0 0.0 0.00 0.00 0.00 1060.9
20260504022829 0 220 0.0 0.0 0.00 0.00 0.00 1060.8
20260504022058 0 211 0.0 0.0 0.00 0.00 0.00 1060.9
20260504021552 0 210 0.0 0.0 0.00 0.00 0.00 1060.9
20260504021051 0 233 0.0 0.0 0.00 0.00 0.00 1061.0
20260504020550 0 234 0.0 0.0 0.00 0.00 0.00 1060.9
20260504020051 0 197 0.0 0.0 0.00 0.00 0.00 1060.9
20260504015550 0 244 0.0 0.0 0.00 0.00 0.00 1060.9
20260504015317 0 225 0.0 0.0 0.00 0.00 0.00 1060.9